User: anonymous
Location: Pine Mountain Observatory
(43.7910°N, 120.9377°W)
Time: 15:11:06
(UTC-07:00)
Language:

Cosmos 1867 - Orbit

View from above orbital plane
View from above orbital plane
View from above satellite
View from above satellite

Ground track
Ground track

The orbit data is extracted from the following two-line orbital elements,

1 18187U 87060A   14203.75670317 -.00000026  00000-0  28058-4 0  1046
2 18187 065.0127 316.4098 0015376 260.7468 099.1877 14.31022049412255
Epoch (UTC): 22 July 2014 18:09:39
Eccentricity: 0.0015376
inclination: 65.0127°
perigee height: 777 km
apogee height: 799 km
right ascension of ascending node: 316.4098°
argument of perigee: 260.7468°
revolutions per day: 14.31022049
mean anomaly at epoch: 99.1877°
orbit number at epoch: 41225

The dashed part of the orbit path shows where the satellite is in the earth's shadow,  

DLR